Hourly Weather Bolshie Kalmyki

Today, 16 June, Wednesday

Time Temperature Precipitation Wind Pressure Humidity
00:00 +17°C° 0.3 mm 2 mps 735 mmHg 88%
01:00 +17°C° 0 mm 2 mps 735 mmHg 89%
02:00 +16°C° 0 mm 2 mps 736 mmHg 91%
03:00 +16°C° 0 mm 2 mps 736 mmHg 93%
04:00 +16°C° 0 mm 2 mps 736 mmHg 93%
05:00 +17°C° 0 mm 2 mps 736 mmHg 93%
06:00 +17°C° 0 mm 2 mps 736 mmHg 93%
07:00 +18°C° 0 mm 3 mps 736 mmHg 87%
08:00 +20°C° 0 mm 3 mps 737 mmHg 82%
09:00 +21°C° 0 mm 4 mps 737 mmHg 76%
10:00 +22°C° 0 mm 4 mps 737 mmHg 72%
11:00 +22°C° 0 mm 4 mps 737 mmHg 69%
12:00 +23°C° 0 mm 5 mps 737 mmHg 65%
13:00 +23°C° 0 mm 5 mps 738 mmHg 64%
14:00 +23°C° 0 mm 5 mps 738 mmHg 63%
15:00 +25°C° 0 mm 5 mps 738 mmHg 61%
16:00 +23°C° 0.1 mm 4 mps 738 mmHg 65%
17:00 +23°C° 0.1 mm 4 mps 739 mmHg 69%
18:00 +22°C° 0.1 mm 3 mps 739 mmHg 73%
19:00 +21°C° 0 mm 3 mps 739 mmHg 76%
20:00 +19°C° 0 mm 3 mps 739 mmHg 79%
21:00 +18°C° 0 mm 2 mps 740 mmHg 82%
22:00 +17°C° 0 mm 3 mps 740 mmHg 83%
23:00 +16°C° 0 mm 3 mps 741 mmHg 83%

Tomorrow, 17 June, Thursday

Time Temperature Precipitation Wind Pressure Humidity
00:00 +14°C° 0 mm 3 mps 741 mmHg 83%
01:00 +13°C° 0 mm 3 mps 742 mmHg 81%
02:00 +13°C° 0 mm 3 mps 742 mmHg 79%
03:00 +12°C° 0 mm 3 mps 743 mmHg 78%
04:00 +12°C° 0 mm 3 mps 743 mmHg 79%
05:00 +13°C° 0 mm 2 mps 743 mmHg 80%
06:00 +14°C° 0 mm 2 mps 744 mmHg 81%
07:00 +14°C° 0 mm 3 mps 744 mmHg 75%
08:00 +17°C° 0 mm 3 mps 744 mmHg 70%
09:00 +19°C° 0 mm 4 mps 745 mmHg 64%
10:00 +20°C° 0 mm 4 mps 745 mmHg 61%
11:00 +20°C° 0 mm 4 mps 745 mmHg 58%
12:00 +21°C° 0 mm 4 mps 745 mmHg 55%
13:00 +22°C° 0 mm 4 mps 746 mmHg 55%
14:00 +22°C° 0 mm 4 mps 746 mmHg 54%
15:00 +22°C° 0 mm 4 mps 746 mmHg 54%
16:00 +22°C° 0 mm 4 mps 746 mmHg 58%
17:00 +21°C° 0 mm 3 mps 746 mmHg 62%
18:00 +21°C° 0 mm 3 mps 746 mmHg 67%
19:00 +19°C° 0 mm 3 mps 746 mmHg 70%
20:00 +18°C° 0 mm 2 mps 746 mmHg 73%
21:00 +16°C° 0 mm 2 mps 746 mmHg 77%
22:00 +16°C° 0 mm 2 mps 747 mmHg 78%
23:00 +15°C° 0 mm 2 mps 747 mmHg 78%

Day after tomorrow, 18 June, Friday

Time Temperature Precipitation Wind Pressure Humidity
00:00 +14°C° 0 mm 2 mps 747 mmHg 79%
01:00 +14°C° 0 mm 2 mps 747 mmHg 78%
02:00 +14°C° 0 mm 2 mps 747 mmHg 76%
03:00 +13°C° 0 mm 1 mps 747 mmHg 74%
04:00 +14°C° 0 mm 1 mps 748 mmHg 75%
05:00 +14°C° 0 mm 1 mps 748 mmHg 76%
06:00 +15°C° 0 mm 2 mps 748 mmHg 77%
07:00 +17°C° 0 mm 2 mps 748 mmHg 73%
08:00 +18°C° 0 mm 2 mps 749 mmHg 69%
09:00 +20°C° 0 mm 2 mps 749 mmHg 65%
10:00 +21°C° 0 mm 2 mps 749 mmHg 62%
11:00 +23°C° 0 mm 2 mps 749 mmHg 60%
12:00 +23°C° 0 mm 2 mps 749 mmHg 57%
13:00 +24°C° 0 mm 2 mps 749 mmHg 57%
14:00 +24°C° 0 mm 2 mps 749 mmHg 57%
15:00 +24°C° 0 mm 2 mps 749 mmHg 56%
16:00 +24°C° 0 mm 2 mps 749 mmHg 59%
17:00 +24°C° 0 mm 2 mps 749 mmHg 63%
18:00 +24°C° 0 mm 1 mps 748 mmHg 66%
19:00 +21°C° 0 mm 2 mps 748 mmHg 72%
20:00 +20°C° 0 mm 2 mps 748 mmHg 77%
21:00 +18°C° 0 mm 2 mps 748 mmHg 83%
22:00 +18°C° 0 mm 1 mps 748 mmHg 84%
23:00 +16°C° 0 mm 1 mps 749 mmHg 85%

19 June, Saturday

Time Temperature Precipitation Wind Pressure Humidity
00:00 +16°C° 0 mm 1 mps 749 mmHg 86%
01:00 +15°C° 0 mm 1 mps 749 mmHg 86%
02:00 +15°C° 0 mm 1 mps 749 mmHg 86%
03:00 +15°C° 0 mm 1 mps 749 mmHg 86%
04:00 +15°C° 0 mm 1 mps 749 mmHg 85%
05:00 +16°C° 0 mm 1 mps 749 mmHg 84%
06:00 +18°C° 0 mm 1 mps 750 mmHg 83%
07:00 +19°C° 0 mm 1 mps 750 mmHg 78%
08:00 +20°C° 0 mm 1 mps 750 mmHg 73%
09:00 +22°C° 0 mm 1 mps 750 mmHg 68%
10:00 +23°C° 0 mm 1 mps 750 mmHg 65%
11:00 +24°C° 0 mm 2 mps 750 mmHg 62%
12:00 +25°C° 0 mm 2 mps 749 mmHg 59%
13:00 +25°C° 0 mm 2 mps 749 mmHg 58%
14:00 +25°C° 0 mm 2 mps 749 mmHg 57%
15:00 +25°C° 0 mm 2 mps 749 mmHg 56%
16:00 +25°C° 0 mm 2 mps 749 mmHg 59%
17:00 +25°C° 0 mm 2 mps 748 mmHg 62%
18:00 +25°C° 0 mm 1 mps 748 mmHg 65%
19:00 +23°C° 0 mm 1 mps 748 mmHg 71%
20:00 +22°C° 0 mm 1 mps 748 mmHg 76%
21:00 +20°C° 0 mm 1 mps 748 mmHg 81%
22:00 +19°C° 0 mm 1 mps 748 mmHg 83%
23:00 +19°C° 0 mm 1 mps 748 mmHg 84%

20 June, Sunday

Time Temperature Precipitation Wind Pressure Humidity
00:00 +18°C° 0 mm 1 mps 748 mmHg 86%
01:00 +18°C° 0 mm 1 mps 748 mmHg 87%
02:00 +16°C° 0 mm 1 mps 748 mmHg 88%
03:00 +16°C° 0 mm 1 mps 748 mmHg 89%
04:00 +18°C° 0 mm 1 mps 748 mmHg 88%
05:00 +18°C° 0 mm 1 mps 748 mmHg 87%
06:00 +19°C° 0 mm 1 mps 748 mmHg 86%
07:00 +20°C° 0 mm 1 mps 748 mmHg 81%
08:00 +22°C° 0 mm 1 mps 748 mmHg 76%
09:00 +23°C° 0 mm 1 mps 748 mmHg 72%
10:00 +24°C° 0 mm 1 mps 748 mmHg 68%
11:00 +25°C° 0 mm 2 mps 748 mmHg 65%
12:00 +26°C° 0 mm 2 mps 748 mmHg 61%
13:00 +26°C° 0 mm 2 mps 747 mmHg 60%
14:00 +26°C° 0 mm 2 mps 747 mmHg 59%
15:00 +27°C° 0 mm 2 mps 747 mmHg 57%
16:00 +27°C° 0 mm 2 mps 746 mmHg 60%
17:00 +27°C° 0 mm 1 mps 746 mmHg 62%
18:00 +26°C° 0 mm 1 mps 746 mmHg 64%
19:00 +25°C° 0 mm 1 mps 746 mmHg 69%
20:00 +23°C° 0 mm 1 mps 746 mmHg 74%
21:00 +19°C° 0 mm 0 mps 746 mmHg 79%
22:00 +21°C° 0 mm 1 mps 746 mmHg 81%
23:00 +20°C° 0 mm 1 mps 745 mmHg 83%

21 June, Monday

Time Temperature Precipitation Wind Pressure Humidity
00:00 +19°C° 0 mm 1 mps 745 mmHg 84%
01:00 +19°C° 0 mm 1 mps 745 mmHg 85%
02:00 +19°C° 0 mm 1 mps 745 mmHg 86%
03:00 +19°C° 0 mm 1 mps 745 mmHg 87%
04:00 +19°C° 0 mm 1 mps 745 mmHg 87%
05:00 +20°C° 0 mm 1 mps 745 mmHg 86%
06:00 +20°C° 0 mm 1 mps 745 mmHg 86%
07:00 +22°C° 0 mm 1 mps 745 mmHg 82%
08:00 +23°C° 0 mm 1 mps 745 mmHg 78%
09:00 +24°C° 0 mm 2 mps 745 mmHg 74%
10:00 +25°C° 0 mm 2 mps 745 mmHg 70%
11:00 +26°C° 0 mm 1 mps 745 mmHg 65%
12:00 +27°C° 0 mm 1 mps 745 mmHg 61%
13:00 +27°C° 0 mm 1 mps 745 mmHg 59%
14:00 +28°C° 0 mm 2 mps 744 mmHg 57%
15:00 +28°C° 0 mm 2 mps 744 mmHg 55%
16:00 +28°C° 0 mm 1 mps 744 mmHg 58%
17:00 +28°C° 0 mm 1 mps 744 mmHg 61%
18:00 +28°C° 0 mm 1 mps 743 mmHg 64%
19:00 +26°C° 0 mm 1 mps 743 mmHg 69%
20:00 +22°C° 0 mm 0 mps 743 mmHg 73%
21:00 +21°C° 0 mm 0 mps 743 mmHg 77%
22:00 +20°C° 0 mm 0 mps 743 mmHg 79%
23:00 +19°C° 0 mm 0 mps 743 mmHg 80%
Show more